Tracking 28052 objects as of 22-Sep-2023
HD Live streaming from Space Station
objects crossing your sky now

STARLINK-5084

Track STARLINK-5084 now!
10-day predictions
STARLINK-5084 is classified as:


NORAD ID: 54851
Int'l Code: 2022-177AH
Perigee: 565.3 km
Apogee: 567.0 km
Inclination: 43.0 °
Period: 95.8 minutes
Semi major axis: 6937 km
RCS: Unknown
Launch date: December 28, 2022
Source: United States (US)
Launch site: AIR FORCE EASTERN TEST RANGE (AFETR)
Your satellite tracking list
Your tracking list is empty




NASA's NSSDC Master Catalog

Two Line Element Set (TLE):
1 54851U 22177AH  23265.32322293  .00011636  00000-0  87451-3 0  9991
2 54851  43.0031 327.5407 0001251 294.7584  65.3129 15.02558589 40831
Source of the keplerian elements: AFSPC